Weather observations for the past three days for
Shawnee, Shawnee Municipal Airport
Imperial (Metric)
Date Time (cdt) Wind (mph) Vis. (mi.) Weather Sky Cond. Temperature (ºF) Relative Humidity Wind Chill (°F) Heat Index (°F) Pressure Precipitation (in)
Air Dwpt 6 hour altimeter (in) sea level (mb) 1 hr 3 hr 6 hr
Max. Min.
14 14:55 S 14 G 20 10.00 Fair CLR 97.2 67.3 38% 102 30.02 0.0
14 14:35 S 13 10.00 Fair CLR 96.6 67.6 39% 101 30.03 0.0
14 14:15 S 14 G 22 10.00 Fair CLR 95.9 67.8 40% 101 30.03 0.0
14 13:55 SW 10 G 20 10.00 Fair CLR 95 68.5 42% 100 30.04 0.0
14 13:35 S 15 G 22 10.00 Fair CLR 95 68.5 42% 100 30.04 0.0
14 13:15 S 14 G 17 10.00 Fair CLR 94.6 69.6 44% 101 30.05 0.0
14 12:55 S 16 10.00 Fair CLR 93.4 68.9 94.1 76.1 45% 99 30.06 0.0
14 12:35 SW 13 G 18 10.00 Fair CLR 93 68.7 45% 98 30.06 0.0
14 12:15 S 12 G 17 10.00 Fair CLR 92.7 69.4 47% 98 30.07 0.0
14 11:55 S 13 G 16 10.00 Fair CLR 91.4 69.3 48% 96 30.07 0.0
14 11:35 SW 10 G 17 10.00 Fair CLR 91.2 69.6 49% 97 30.08 0.0
14 11:15 SW 10 10.00 Fair CLR 89.6 68.7 50% 94 30.08 0.0
14 10:55 SW 10 G 17 10.00 Fair CLR 88.7 68.4 51% 93 30.09 0.0
14 10:35 SW 16 10.00 Fair CLR 87.6 68.4 53% 91 30.09 0.0
14 10:15 SW 9 G 18 10.00 Fair CLR 86.9 68.7 55% 91 30.09 0.0
14 09:55 SW 16 G 20 10.00 Fair CLR 85.6 68.7 57% 89 30.09 0.0
14 09:35 S 13 G 18 10.00 Fair CLR 84.6 68.9 59% 88 30.09 0.0
14 09:15 SW 15 10.00 Fair CLR 83.5 68.9 62% 87 30.1 0.0
14 08:55 SW 13 10.00 Fair CLR 82.4 69.4 65% 86 30.1 0.0
14 08:35 SW 12 G 18 10.00 Fair CLR 81.1 70.9 71% 85 30.1 0.0
14 08:15 SW 10 10.00 Fair CLR 80.2 71.8 75% 84 30.1 0.0
14 07:55 SW 12 10.00 Fair CLR 78.8 72.9 82% 82 30.1 0.0
14 07:35 S 10 10.00 Fair CLR 77.9 74.1 88% 80 30.1 0.0
14 07:15 S 10 10.00 Fair CLR 76.6 74.5 93% 77 30.09 0.0
14 06:55 S 9 10.00 Fair CLR 76.1 73.8 80.8 75.6 93% 76 30.09 0.0
14 06:35 S 9 10.00 Fair CLR 75.6 73.6 94% 75 30.09 0.0
14 06:15 S 9 10.00 Fair CLR 75.7 73.6 93% 75 30.09 0.0
14 05:55 S 9 10.00 Fair CLR 75.9 73.8 93% 76 30.09 0.0
14 05:35 S 10 10.00 Fair CLR 76.1 73.6 92% 76 30.08 0.0
14 05:15 S 9 10.00 Fair CLR 76.1 73.2 91% 76 30.08 0.0
14 04:55 S 10 10.00 Fair CLR 76.5 71.8 86% 77 30.08 0.0
14 04:35 S 9 10.00 Fair CLR 76.8 70.9 82% 78 30.08 0.0
14 04:15 S 9 10.00 Fair CLR 77 70.2 80% 79 30.08 0.0
14 03:55 S 8 10.00 Fair CLR 77.2 69.6 78% 79 30.08 0.0
14 03:35 S 9 10.00 Fair CLR 77.7 69.3 75% 80 30.07 0.0
14 03:15 S 9 10.00 Fair CLR 77.9 68.9 74% 80 30.08 0.0
14 02:55 S 9 10.00 Fair CLR 78.4 68.5 72% 81 30.08 0.0
14 02:35 S 8 10.00 Fair CLR 78.6 68.5 71% 81 30.09 0.0
14 02:15 S 9 10.00 Fair CLR 79 68.4 70% 81 30.09 0.0
14 01:55 S 10 10.00 Fair CLR 79.3 68 68% 82 30.09 0.0
14 01:35 S 9 10.00 Fair CLR 79.9 68 67% 82 30.09 0.0
14 01:15 S 12 G 16 10.00 Fair CLR 80.6 67.6 65% 83 30.09 0.0
14 00:55 S 10 G 17 10.00 Fair CLR 80.8 67.5 92.3 80.8 64% 83 30.09 0.0
14 00:35 S 12 10.00 Fair CLR 81.1 67.3 63% 84 30.1 0.0
14 00:15 S 12 10.00 Fair CLR 81.3 67.1 62% 84 30.1 0.0
13 23:55 S 13 10.00 Fair CLR 81.9 66.4 60% 84 30.1 0.0
13 23:35 S 9 10.00 Fair CLR 81.7 66.2 60% 84 30.1 0.0
13 23:15 S 9 10.00 Fair CLR 82 65.7 58% 84 30.1 0.0
13 22:55 S 9 10.00 Fair CLR 82.4 65.3 56% 84 30.1 0.0
13 22:35 S 8 10.00 Fair CLR 82.4 65.3 56% 84 30.1 0.0
13 22:15 S 7 10.00 Fair CLR 83.7 65.3 54% 86 30.1 0.0
13 21:55 S 9 10.00 Fair CLR 84.2 65.3 53% 86 30.09 0.0
13 21:35 S 8 10.00 Fair CLR 84.4 64.8 52% 86 30.09 0.0
13 21:15 S 9 10.00 Fair CLR 85.3 64.4 50% 87 30.09 0.0
13 20:55 S 8 10.00 Fair CLR 86.2 63.9 47% 87 30.09 0.0
13 20:35 S 7 10.00 Fair CLR 86.9 63.9 46% 88 30.09 0.0
13 20:15 S 8 10.00 Fair CLR 88.7 63.7 43% 90 30.08 0.0
13 19:55 S 9 G 16 10.00 Fair CLR 89.8 64.6 43% 91 30.08 0.0
13 19:35 S 13 G 17 10.00 Fair CLR 90.9 65.1 43% 93 30.08 0.0
13 19:15 S 13 G 18 10.00 Fair CLR 91.8 65.8 42% 94 30.07 0.0
13 18:55 S 14 G 21 10.00 Fair CLR 92.3 65.8 96.1 91.8 42% 95 30.07 0.0
13 18:35 S 17 G 21 10.00 Fair CLR 93.2 65.1 40% 96 30.07 0.0
13 18:15 S 13 G 25 10.00 Fair CLR 93.4 65.1 39% 96 30.07 0.0
13 17:55 S 13 10.00 Fair CLR 94.5 63 35% 96 30.07 0.0
13 17:35 S 10 G 17 10.00 Fair CLR 95 62.6 34% 96 30.08 0.0
13 17:15 S 12 G 20 10.00 Fair CLR 94.6 62.2 34% 96 30.09 0.0
13 16:55 SE 10 G 16 10.00 Fair CLR 95 62.6 34% 96 30.1 0.0
13 16:35 S 9 G 20 10.00 Fair CLR 95.7 60.1 31% 96 30.1 0.0
13 16:15 S 14 G 18 10.00 Fair CLR 95.5 60.4 31% 96 30.1 0.0
13 15:55 S 14 G 18 10.00 Fair CLR 95.5 60.4 31% 96 30.11 0.0
13 15:35 S 9 10.00 Fair CLR 95 63 35% 96 30.12 0.0
13 15:15 S 13 G 17 10.00 Fair CLR 95 63.3 35% 97 30.12 0.0
13 14:55 S 13 G 18 10.00 Fair CLR 94.1 63.7 37% 96 30.12 0.0
13 14:35 S 12 G 18 10.00 Fair CLR 93.7 64.6 38% 96 30.12 0.0
13 14:15 S 13 G 16 10.00 Fair CLR 94.3 63.7 36% 96 30.13 0.0
13 13:55 S 12 10.00 Fair CLR 93.2 63.9 38% 95 30.14 0.0
13 13:35 S 13 G 16 10.00 Fair CLR 92.8 63.9 38% 94 30.15 0.0
13 13:15 S 10 G 20 10.00 Fair CLR 92.8 64.9 40% 95 30.15 0.0
13 12:55 S 9 10.00 Fair CLR 91.4 63.9 92.1 74.3 40% 93 30.15 0.0
13 12:35 S 10 G 16 10.00 Fair CLR 91.6 64.2 40% 93 30.16 0.0
13 12:15 S 13 G 17 10.00 Fair CLR 91.2 64.6 41% 93 30.16 0.0
13 11:55 SW 9 10.00 Fair CLR 90.7 64 41% 92 30.16 0.0
13 11:35 S 8 10.00 Fair CLR 89.2 65.8 46% 92 30.16 0.0
13 11:15 S 13 10.00 Fair CLR 87.4 66 49% 90 30.16 0.0
13 10:55 S 9 10.00 Fair CLR 86.9 67.5 52% 90 30.16 0.0
13 10:35 S 8 10.00 Fair CLR 85.3 67.6 56% 88 30.16 0.0
13 10:15 S 7 10.00 Fair CLR 84 67.8 58% 87 30.16 0.0
13 09:55 SW 9 10.00 Fair CLR 83.3 67.8 60% 86 30.15 0.0
13 09:35 SW 10 10.00 Fair CLR 82.4 67.3 60% 85 30.15 0.0
13 09:15 SW 9 G 16 10.00 Fair CLR 81 67.1 63% 83 30.16 0.0
13 08:55 SW 12 10.00 Fair CLR 80.6 67.1 64% 83 30.15 0.0
13 08:35 SW 12 10.00 Fair CLR 79.3 66.6 65% 81 30.15 0.0
13 08:15 SW 9 10.00 Fair CLR 78.3 66.6 67% 80 30.15 0.0
13 07:55 S 10 10.00 Fair CLR 77.2 66.4 69% 79 30.14 0.0
13 07:35 S 9 10.00 Fair CLR 75.9 66.4 72% 77 30.14 0.0
13 07:15 S 8 10.00 Fair CLR 74.7 66.6 76% 30.13 0.0
13 06:55 S 8 10.00 Fair CLR 74.3 66.6 81 74.3 77% 30.12 0.0
13 06:35 SW 7 10.00 Fair CLR 74.7 66.4 76% 30.12 0.0
13 06:15 SW 9 10.00 Fair CLR 75.2 66.4 74% 76 30.12 0.0
13 05:55 S 8 10.00 Fair CLR 75 66.4 75% 76 30.11 0.0
13 05:35 S 9 10.00 Fair CLR 75.7 66.6 73% 77 30.11 0.0
13 05:15 S 10 10.00 Fair CLR 75.6 67.1 75% 77 30.09 0.0
13 04:55 S 8 10.00 Fair CLR 75.6 67.1 75% 77 30.09 0.0
13 04:35 S 9 10.00 Fair CLR 76.1 67.1 74% 78 30.08 0.0
13 04:15 S 9 10.00 Fair CLR 76.3 66.7 72% 78 30.08 0.0
13 03:55 S 8 10.00 Fair CLR 76.8 66.6 71% 79 30.07 0.0
13 03:35 S 9 10.00 Fair CLR 77.2 66.6 70% 79 30.07 0.0
13 03:15 S 10 10.00 Fair CLR 77.9 66.4 68% 80 30.07 0.0
13 02:55 S 10 10.00 Fair CLR 78.8 66.2 65% 81 30.06 0.0
13 02:35 S 12 10.00 Fair CLR 79.5 66.2 64% 82 30.06 0.0
13 02:15 S 14 10.00 Fair CLR 79.9 65.8 62% 82 30.06 0.0
13 01:55 S 14 10.00 Fair CLR 80.6 65.3 60% 83 30.06 0.0
13 01:35 S 12 10.00 Fair CLR 80.2 65.3 60% 82 30.07 0.0
13 01:15 S 12 G 16 10.00 Fair CLR 80.6 64.9 59% 82 30.07 0.0
13 00:55 S 10 10.00 Fair CLR 81.1 64.9 93.4 81 58% 83 30.07 0.0
13 00:35 S 10 10.00 Fair CLR 81.1 64.9 58% 83 30.07 0.0
13 00:15 S 12 10.00 Fair CLR 81.5 64.9 57% 83 30.06 0.0
12 23:55 S 9 10.00 Fair CLR 81.1 64.8 58% 83 30.07 0.0
12 23:35 S 8 10.00 Fair CLR 81.7 64.6 56% 83 30.07 0.0
12 23:15 S 8 10.00 Fair CLR 82.2 64.6 55% 84 30.06 0.0
12 22:55 S 9 10.00 Fair CLR 83.3 64.4 53% 85 30.06 0.0
12 22:35 S 10 10.00 Fair CLR 83.8 64.4 52% 85 30.05 0.0
12 22:15 S 9 10.00 Fair CLR 84.4 63.9 50% 86 30.05 0.0
12 21:55 S 10 10.00 Fair CLR 85.1 64 49% 86 30.04 0.0
12 21:35 S 12 10.00 Fair CLR 86 64.6 49% 88 30.03 0.0
12 21:15 S 13 10.00 Fair CLR 86 65.7 51% 88 30.03 0.0
12 20:55 S 8 10.00 Fair CLR 86 65.5 50% 88 30.04 0.0
12 20:35 S 8 10.00 Fair CLR 87.1 64.4 47% 89 30.04 0.0
12 20:15 S 9 10.00 Fair CLR 88.7 63.5 43% 90 30.03 0.0
12 19:55 S 9 10.00 Fair CLR 90.1 62.8 40% 91 30.03 0.0
12 19:35 S 10 10.00 Fair CLR 91.4 62.8 39% 92 30.02 0.0
12 19:15 S 12 10.00 Fair CLR 92.3 62.6 37% 93 30.02 0.0
12 18:55 S 10 10.00 Fair CLR 93.4 62.1 95.9 91.8 35% 94 30.02 0.0
12 18:35 S 14 G 18 10.00 Fair CLR 94.1 60.3 32% 94 30.01 0.0
12 18:15 S 16 G 20 10.00 Fair CLR 94.6 60.3 32% 95 30.01 0.0
12 17:55 S 16 G 21 10.00 Fair CLR 95.2 61.2 32% 96 30.02 0.0
12 17:35 S 13 G 23 10.00 Fair CLR 94.8 63.3 35% 96 30.02 0.0
12 17:15 S 15 10.00 Fair CLR 95.7 64.8 36% 98 30.02 0.0
12 16:55 S 17 G 22 10.00 Fair CLR 95 63.5 35% 97 30.02 0.0
12 16:35 S 14 10.00 Fair CLR 95.5 64.8 36% 98 30.02 0.0
12 16:15 S 12 G 21 10.00 Fair CLR 95.4 65.3 37% 98 30.03 0.0
12 15:55 S 17 G 23 10.00 Fair CLR 94.8 65.3 38% 98 30.03 0.0
12 15:35 S 16 G 23 10.00 Fair CLR 95 65.5 38% 98 30.03 0.0
12 15:15 S 16 10.00 Fair CLR 94.3 64.8 38% 97 30.04 0.0
12 14:55 S 15 10.00 Fair CLR 94.6 66.2 39% 98 30.05 0.0
12 14:35 SW 16 G 21 10.00 Fair CLR 91.9 65.3 41% 94 30.05 0.0
12 14:15 S 15 G 21 10.00 Fair CLR 94.5 66.6 40% 98 30.06 0.0
12 13:55 SW 15 G 18 10.00 Fair CLR 94.5 66.2 40% 98 30.07 0.0
12 13:35 SW 12 G 16 10.00 Fair CLR 94.3 66.6 40% 98 30.07 0.0
12 13:15 S 15 G 22 10.00 Fair CLR 93.2 66 41% 96 30.08 0.0
12 12:55 S 13 G 22 10.00 Partly Cloudy SCT120 93 66.2 93.2 75.2 41% 96 30.08 0.0
12 12:35 S 14 G 21 10.00 Partly Cloudy SCT120 92.7 67.1 43% 96 30.09 0.0
12 12:15 S 16 G 20 10.00 Partly Cloudy SCT120 91.6 66 43% 94 30.09 0.0
12 11:55 S 14 G 18 10.00 Fair CLR 90.7 66.4 45% 94 30.09 0.0
12 11:35 SW 15 G 21 10.00 Fair CLR 90.7 66 44% 93 30.09 0.0
12 11:15 S 13 G 18 10.00 Partly Cloudy SCT120 88.3 65.5 47% 90 30.09 0.0
12 10:55 S 15 G 21 10.00 Fair CLR 88 65.8 48% 90 30.08 0.0
12 10:35 S 13 10.00 Fair CLR 88 66.4 49% 91 30.08 0.0
12 10:15 S 15 G 20 10.00 Fair CLR 86.9 66.2 50% 89 30.08 0.0
12 09:55 S 14 G 18 10.00 Fair CLR 86 66.4 52% 88 30.08 0.0
12 09:35 S 14 G 20 10.00 Fair CLR 84.9 66.4 54% 87 30.07 0.0
12 09:15 S 10 10.00 Fair CLR 83.8 66.4 56% 86 30.07 0.0
12 08:55 S 13 G 17 10.00 Fair CLR 82.6 66.4 58% 85 30.07 0.0
12 08:35 S 12 10.00 Fair CLR 81.7 66.4 60% 84 30.06 0.0
12 08:15 S 12 10.00 Fair CLR 80.6 66.2 62% 83 30.06 0.0
12 07:55 S 9 10.00 Fair CLR 79 66.2 65% 81 30.06 0.0
12 07:35 S 9 10.00 Fair CLR 77.2 65.8 68% 79 30.05 0.0
12 07:15 S 7 10.00 Fair CLR 76.5 65.7 69% 78 30.05 0.0
12 06:55 S 6 10.00 Fair CLR 75.2 65.8 81.5 74.3 73% 77 30.05 0.0
12 06:35 S 7 10.00 Fair CLR 74.5 65.7 74% 30.04 0.0
12 06:15 S 7 10.00 Fair CLR 75.2 65.5 72% 77 30.03 0.0
12 05:55 S 8 10.00 Fair CLR 75.2 65.3 71% 77 30.03 0.0
12 05:35 S 9 10.00 Fair CLR 75.6 65.3 71% 77 30.02 0.0
12 05:15 S 8 10.00 Fair CLR 75.4 65.3 71% 77 30.02 0.0
12 04:55 S 8 10.00 Fair CLR 75.7 65.3 70% 77 30.01 0.0
12 04:35 S 8 10.00 Fair CLR 76.1 65.1 69% 78 30 0.0
12 04:15 S 8 10.00 Fair CLR 76.5 65.3 69% 78 30 0.0
12 03:55 S 8 10.00 Fair CLR 76.8 64.9 67% 79 29.99 0.0
12 03:35 S 9 10.00 Fair CLR 77.2 65.1 66% 79 29.99 0.0
12 03:15 S 9 10.00 Fair CLR 77.7 65.3 66% 80 29.99 0.0
12 02:55 S 8 10.00 Fair CLR 78.1 65.3 65% 80 29.99 0.0
12 02:35 S 9 10.00 Fair CLR 78.8 65.3 63% 81 29.99 0.0
12 02:15 S 10 10.00 Fair CLR 79.3 65.3 62% 81 29.99 0.0
12 01:55 S 10 10.00 Fair CLR 79.7 65.3 62% 82 29.99 0.0
12 01:35 S 10 10.00 Fair CLR 80.4 65.3 60% 82 30 0.0
12 01:15 S 12 10.00 Fair CLR 81 65.3 59% 83 30 0.0
12 00:55 S 13 G 18 10.00 Fair CLR 81.5 65.3 94.6 81.5 58% 83 30 0.0
12 00:35 S 13 G 18 10.00 Fair CLR 82.2 65.3 57% 84 30.01 0.0
12 00:15 S 13 G 17 10.00 Fair CLR 82.6 65.5 56% 85 30 0.0
11 23:55 S 13 10.00 Fair CLR 82.9 65.5 56% 85 30 0.0
11 23:35 S 14 G 18 10.00 Fair CLR 83.3 65.5 55% 85 30 0.0
11 23:15 S 14 G 20 10.00 Fair CLR 83.7 65.3 54% 86 29.99 0.0
11 22:55 S 15 G 20 10.00 Fair CLR 84.2 65.5 53% 86 29.99 0.0
11 22:35 S 14 10.00 Fair CLR 84.4 65.7 53% 86 29.99 0.0
11 22:15 S 13 10.00 Fair CLR 85.3 65.5 52% 87 29.99 0.0
11 21:55 S 10 10.00 Fair CLR 85.8 65.7 51% 88 29.98 0.0
11 21:35 S 13 G 18 10.00 Fair CLR 86.2 65.5 50% 88 29.97 0.0
11 21:15 S 13 G 17 10.00 Fair CLR 86.9 66.2 50% 89 29.96 0.0
11 20:55 S 12 10.00 Fair CLR 87.8 66.4 49% 90 29.96 0.0
11 20:35 S 13 10.00 Fair CLR 88.9 65.3 46% 91 29.96 0.0
11 20:15 S 10 10.00 Fair CLR 90.5 63.5 41% 92 29.96 0.0
11 19:55 S 9 10.00 Fair CLR 91.2 63.5 40% 92 29.96 0.0
11 19:35 S 12 10.00 Fair CLR 92.1 62.6 37% 93 29.96 0.0
11 19:15 S 10 G 17 10.00 Fair CLR 94.1 62.4 35% 95 29.96 0.0
11 18:55 S 15 G 20 10.00 Fair CLR 94.6 61.3 97.7 93.2 33% 95 29.96 0.0
11 18:35 S 13 10.00 Fair CLR 95.4 61.9 33% 96 29.96 0.0
11 18:15 S 13 G 18 10.00 Fair CLR 96.1 61 31% 97 29.97 0.0
11 17:55 S 14 10.00 Fair CLR 96.4 59.5 29% 96 29.96 0.0
11 17:35 S 12 10.00 Fair CLR 97.2 62.4 32% 98 29.97 0.0
11 17:15 S 15 10.00 Fair CLR 96.8 63.9 34% 99 29.97 0.0
11 16:55 S 14 10.00 Fair CLR 96.6 64.6 35% 99 29.97 0.0
11 16:35 SW 10 G 18 10.00 Fair CLR 97.2 64.8 35% 100 29.98 0.0
11 16:15 SW 12 G 18 10.00 Fair CLR 96.8 63.1 33% 98 29.98 0.0
11 15:55 SW 10 10.00 Fair CLR 96.6 62.8 33% 98 29.99 0.0
11 15:35 S 13 G 18 10.00 Fair CLR 96.6 62.6 33% 98 29.99 0.0
11 15:15 S 14 G 21 10.00 Fair CLR 96.6 64.2 34% 99 29.99 0.0
Date Time (cdt) Wind (mph) Vis. (mi.) Weather Sky Cond. Air Dwpt Max. Min. Relative Humidity Wind Chill (°F) Heat Index (°F) altimeter (in) sea level (mb) 1 hr 3 hr 6 hr
6 hour
Temperature (ºF) Pressure Precipitation (in)